| time (UTC) | temp F | wind direction | speed MPH | gust MPH | rain 1hr in | rain 24hr in | rain mn in | humidity % | barometer mb |
| 20260905190541 | 56 | 264 | 5.0 | 6.0 | 0.04 | 0.09 | 0.00 | 79 | 1324.9 |
| 20260905183529 | 57 | 283 | 0.0 | 0.0 | 0.00 | 0.04 | 0.00 | 71 | 1324.1 |
| 20260905180529 | 58 | 342 | 2.0 | 2.0 | 0.00 | 0.04 | 0.00 | 70 | 1324.1 |
| 20260905173517 | 64 | 189 | 3.0 | 3.0 | 0.00 | 0.04 | 0.00 | 59 | 1323.6 |
| 20260905170516 | 65 | 140 | 5.0 | 5.0 | 0.00 | 0.04 | 0.00 | 57 | 1323.2 |
| 20260905163504 | 64 | 175 | 1.0 | 1.0 | 0.00 | 0.04 | 0.00 | 58 | 1323.0 |
| 20260905160504 | 66 | 252 | 2.0 | 2.0 | 0.00 | 0.04 | 0.00 | 53 | 1322.8 |
| 20260905153451 | 68 | 66 | 3.0 | 3.0 | 0.00 | 0.04 | 0.00 | 49 | 1322.7 |
| 20260905150451 | 68 | 6 | 5.0 | 5.0 | 0.00 | 0.04 | 0.00 | 45 | 1322.5 |
| 20260905143439 | 68 | 194 | 3.0 | 3.0 | 0.00 | 0.04 | 0.00 | 47 | 1322.4 |
| 20260905140427 | 69 | 138 | 3.0 | 4.0 | 0.00 | 0.04 | 0.00 | 48 | 1322.5 |
| 20260905133426 | 69 | 205 | 7.0 | 9.0 | 0.00 | 0.04 | 0.00 | 46 | 1322.4 |
| 20260905130413 | 68 | 270 | 6.0 | 7.0 | 0.00 | 0.04 | 0.00 | 47 | 1322.5 |
| 20260905123414 | 66 | 228 | 3.0 | 3.0 | 0.00 | 0.04 | 0.00 | 50 | 1322.7 |
| 20260905120401 | 69 | 208 | 2.0 | 2.0 | 0.00 | 0.04 | 0.00 | 51 | 1322.6 |
| 20260905113401 | 65 | 325 | 4.0 | 4.0 | 0.00 | 0.04 | 0.00 | 57 | 1322.6 |
| 20260905110348 | 66 | 271 | 7.0 | 10.0 | 0.00 | 0.04 | 0.00 | 57 | 1322.4 |
| 20260905103348 | 66 | 174 | 4.0 | 4.0 | 0.00 | 0.04 | 0.00 | 56 | 1322.3 |
| 20260905100336 | 65 | 226 | 4.0 | 5.0 | 0.00 | 0.04 | 0.00 | 60 | 1322.2 |
| 20260905093336 | 66 | 173 | 4.0 | 4.0 | 0.00 | 0.04 | 0.00 | 57 | 1322.0 |
| 20260905090335 | 66 | 175 | 3.0 | 3.0 | 0.00 | 0.04 | 0.00 | 62 | 1321.9 |
| 20260905083323 | 64 | 266 | 3.0 | 3.0 | 0.00 | 0.04 | 0.00 | 67 | 1321.8 |
| 20260905080310 | 63 | 41 | 4.0 | 4.0 | 0.00 | 0.04 | 0.00 | 71 | 1321.7 |
| 20260905073311 | 62 | 254 | 6.0 | 7.0 | 0.00 | 0.04 | 0.00 | 74 | 1321.5 |
| 20260905070310 | 61 | 206 | 2.0 | 2.0 | 0.00 | 0.04 | 0.00 | 79 | 1321.2 |
| 20260905063310 | 60 | 306 | 3.0 | 4.0 | 0.00 | 0.04 | 0.00 | 82 | 1320.8 |
| 20260905060258 | 60 | 144 | 5.0 | 5.0 | 0.00 | 0.04 | 0.00 | 85 | 1320.5 |
| 20260905053245 | 59 | 264 | 3.0 | 3.0 | 0.00 | 0.04 | 0.00 | 85 | 1320.1 |
| 20260905050245 | 59 | 270 | 2.0 | 2.0 | 0.00 | 0.04 | 0.00 | 86 | 1319.9 |
| 20260905043244 | 60 | 182 | 3.0 | 4.0 | 0.00 | 0.04 | 0.00 | 86 | 1319.4 |
| 20260905040232 | 59 | 264 | 2.0 | 2.0 | 0.00 | 0.04 | 0.00 | 87 | 1319.0 |
| 20260905033232 | 60 | 234 | 2.0 | 2.0 | 0.00 | 0.04 | 0.00 | 88 | 1318.6 |
| 20260905030220 | 59 | 198 | 2.0 | 2.0 | 0.00 | 0.04 | 0.00 | 87 | 1318.4 |
| 20260905023206 | 59 | 252 | 7.0 | 10.0 | 0.00 | 0.04 | 0.00 | 89 | 1318.1 |
| 20260905020155 | 60 | 276 | 2.0 | 2.0 | 0.00 | 0.04 | 0.00 | 89 | 1317.7 |
| 20260905013154 | 60 | 210 | 2.0 | 2.0 | 0.00 | 0.04 | 0.00 | 90 | 1318.0 |
| 20260905010154 | 60 | 206 | 3.0 | 4.0 | 0.00 | 0.04 | 0.00 | 90 | 1317.7 |
| 20260905003154 | 60 | 86 | 5.0 | 5.0 | 0.01 | 0.03 | 0.00 | 90 | 1317.5 |
| 20260905000141 | 60 | 168 | 5.0 | 6.0 | 0.03 | 0.03 | 0.00 | 88 | 1316.8 |
| 20260904233128 | 60 | 180 | 2.0 | 2.0 | 0.02 | 0.02 | 0.00 | 88 | 1316.5 |
| 20260904230128 | 62 | 161 | 5.0 | 6.0 | 0.00 | 0.00 | 0.00 | 85 | 1316.0 |
| 20260904223128 | 63 | 174 | 3.0 | 3.0 | 0.00 | 0.11 | 0.00 | 85 | 1315.5 |
| 20260904220115 | 64 | 182 | 2.0 | 2.0 | 0.01 | 0.11 | 0.00 | 88 | 1315.5 |
| 20260904213103 | 64 | 289 | 2.0 | 2.0 | 0.01 | 0.11 | 0.00 | 91 | 1315.4 |
| 20260904203051 | 65 | 300 | 2.0 | 2.0 | 0.09 | 0.09 | 0.00 | 90 | 1315.1 |
| 20260904200050 | 69 | 204 | 4.0 | 4.0 | 0.03 | 0.03 | 0.00 | 76 | 1315.2 |
| 20260904193038 | 73 | 168 | 8.0 | 10.0 | 0.00 | 0.00 | 0.00 | 61 | 1313.5 |